Location: Antin
(43.3330°N, 0.2804°E)
Time: 23:50:04
(UTC+00:00)

SL-16 R/B - Pass Details

Date: 16 October 2021
Orbit: 842 x 846 km, 71.0° (Epoch: 04 December)

Event Time Altitude Azimuth Distance (km) Brightness Sun altitude
Rises 19:44:40 0° 204° (SSW) 3,385 5.4 -28.0°
Reaches altitude 10° 19:47:06 10° 204° (SSW) 2,455 4.7 -28.4°
Enters shadow 19:51:08 49° 207° (SSW) 1,077 2.7 -29.1°
